AirNav   Phillips 66 Aviation Fuel
 
 1614 users online  

96G Cowley Field Airport
Sandusky, Michigan, USA

GOING TO SANDUSKY?


FAA INFORMATION EFFECTIVE 26 APRIL 2018

Location

FAA Identifier: 96G
Lat/Long: 43-22-32.6000N / 082-49-07.8000W
43-22.543333N / 082-49.130000W
43.3757222 / -82.8188333
(estimated)
Elevation: 770 ft. / 235 m (estimated)
Variation: 07W (1985)
From city: 3 miles S of SANDUSKY, MI
Time zone: UTC -4 (UTC -5 during Standard Time)
Zip code: 48471

Airport Operations

Airport use: Open to the public
Activation date: 04/1971
Control tower: no
ARTCC: CLEVELAND CENTER
FSS: LANSING FLIGHT SERVICE STATION
NOTAMs facility: LAN (NOTAM-D service available)
Attendance: IREG
SNOW REMOVAL IREG; VERIFY COND - CALL 810-648-2352.
Wind indicator: yes
Segmented circle: no

Airport Communications

CTAF: 122.9

Airport Services

Parking: tiedowns
Airframe service: NONE
Powerplant service: NONE
Bottled oxygen: NONE
Bulk oxygen: NONE

Runway Information

Runway 9/27

Dimensions: 2600 x 60 ft. / 792 x 18 m
Surface: turf, in good condition
Runway edge markings: RY MARKED WITH CONES.
RUNWAY 9  RUNWAY 27
Latitude: 43-22.536667N43-22.550000N
Longitude: 082-49.423333W082-48.836667W
Elevation: 770.0 ft.768.0 ft.
Traffic pattern: leftleft
Runway heading: 095 magnetic, 088 true275 magnetic, 268 true
Runway end identifier lights: nono
Obstructions: 53 ft. tree, 1089 ft. from runway, 20:1 slope to clear150 ft. pline, 5500 ft. from runway, 36:1 slope to clear

Airport Ownership and Management from official FAA records

Ownership: Privately-owned
Owner: DALE COWLEY
1515 SO SANDUSKY RD
SANDUSKY, MI 48471
Phone 810-648-2352
Manager: DALE COWLEY
1515 SO SANDUSKY RD
SANDUSKY, MI 48471
Phone 810-648-2352
AMGR LIVES AT ARPT.

Airport Operational Statistics

Aircraft based on the field: 1
Single engine airplanes: 1
    
Aircraft operations: 60/year *
83% transient general aviation
17% local general aviation
* for 12-month period ending 31 December 2015

Additional Remarks

DEER & TURKEYS ON & INVOF ARPT.
BE ALERT FOR CLOSE PROXIMITY OF POWER POLES ALONG TWY ON W END.

Instrument Procedures

There are no published instrument procedures at 96G.

Some nearby airports with instrument procedures:

77G - Marlette Airport (12 nm W)
KBAX - Huron County Memorial Airport (25 nm N)
D95 - Dupont-Lapeer Airport (27 nm SW)
KCFS - Tuscola Area Airport (28 nm W)
KPHN - St Clair County International Airport (31 nm SE)
 
Loc | Ops | Rwys | IFR | FBO | Links
Com | Nav | Svcs | Stats | Notes

AirNav Hotels Sweepstakes
 
Area around 96G (Cowley Field Airport)
 
Road maps at: MapQuest Bing Google
 
Aerial photo
WARNING: Photo may not be current or correct
Aerial photo of 96G (Cowley Field Airport)
Photo by Roy Carlson, Plainwell, MI

Do you have a better or more recent aerial photo of Cowley Field Airport that you would like to share? If so, please send us your photo.

 
Sectional chart

 
Airport distance calculator
Flying to Cowley Field Airport? Find the distance to fly.

From to 96G

Sunrise and sunset
Times for 21-May-2018
 Local
(UTC-4)
 Zulu
(UTC)
Morning civil twilight05:2809:28
Sunrise06:0210:02
Sunset20:5400:54
Evening civil twilight21:2701:27

Current date and time
Zulu (UTC)  21-May-2018 17:56:44
Local (UTC-4)  21-May-2018 13:56:44
 
METAR
KBAX 
25nm N 
211736Z AUTO 12006KT 10SM CLR 17/04 A3022 RMK AO2 T01680037
KD95 
27nm SW 
211735Z AUTO 16005KT 10SM CLR 17/03 A3021 RMK AO2 T01700025
KCFS 
28nm W 
211735Z AUTO 12006KT 070V140 10SM CLR 18/04 A3020 RMK AO2 T01840040
KPHN 
31nm SE 
211736Z AUTO 10007KT 10SM CLR 20/05 A3021 RMK AO2
CYZR 
32nm SE 
211700Z AUTO 01007KT 9SM FEW230 16/06 A3022 RMK SLP237
KP58 
38nm N 
211651Z AUTO 11008KT 13/08 A3023 RMK AO1 SLP242 T01280083
KMTC 
46nm S 
211656Z VRB05KT 10SM SCT140 BKN170 BKN230 17/10 A3022 RMK AO2A SLP239 T01690098 $
KHYX 
46nm W 
211735Z AUTO 12007KT 10SM BKN110 17/03 A3021 RMK AO2
KFNT 
48nm SW 
211653Z 13008KT 10SM FEW110 17/02 A3021 RMK AO2 SLP230 T01720017
KPTK 
50nm SW 
211653Z 10009KT 10SM FEW120 SCT160 OVC230 18/03 A3020 RMK AO2 SLP227 T01780028
TAF
CYZR 
32nm SE 
211338Z 2114/2202 02008KT P6SM BKN240 FM211900 02008KT P6SM OVC150 FM212200 02008KT P6SM -SHRA SCT060 OVC090 FM220100 05008KT P6SM -SHRA OVC040 TEMPO 2201/2202 4SM SHRA BR RMK FCST BASED ON AUTO OBS. NXT FCST BY 212000Z
NOTAMs
Click for the latest NOTAMs
NOTAMs are issued by the DoD/FAA and will open in a separate window not controlled by AirNav.

 

 
 

Would you like to see your business listed on this page?

 If your business provides an interesting product or service to pilots, flight crews, aircraft, or users of the Cowley Field Airport, you should consider listing it here.  To start the listing process, click on the button below
 
Add a business
 

Other Pages about Cowley Field Airport

Page from the Michigan Airport Directory (PDF)
 
Update a link
 
Copyright © AirNav, LLC. All rights reserved. Privacy Policy  Contact